^^
Saratoga-Weather Station Historical Data
Daily Summary for February 8, 2020 Units:  English    Metric   Both
Daily Weekly Monthly Yearly Custom
  High: Low: Average:
Temperature: 63 °F 51.4 °F 56.3 °F
Dew Point: 56.3 °F 49.5 °F 53.1 °F
Humidity: 95% 76% 90%
Wind Speed: 10.1mph 0mph 2.1mph
Wind Gust: 17mph - -
Wind- - SW
Pressure: 30.1 in 30 in -
Precipitation: 0.05 in    
Historical Graphs
 
 
Tabular Data for February 8, 2020
Time Temperature Dew Point Pressure Wind Wind Speed Wind Gust Humidity Rainfall Rate (Hourly) solar
00:02 52.2 °F 49.6 °F 30.1 in WSW 0.9 mph 2 mph 91% 0 in 0 W/m2
00:07 52.2 °F 49.6 °F 30.1 in West 0.9 mph 2 mph 91% 0 in 0 W/m2
00:12 52 °F 49.5 °F 30.1 in Calm   2 mph 91% 0 in 0 W/m2
00:17 52 °F 49.6 °F 30.1 in West 2.9 mph 5 mph 92% 0 in 0 W/m2
00:22 52 °F 49.6 °F 30.1 in Calm   2 mph 92% 0 in 0 W/m2
00:27 52 °F 49.6 °F 30.1 in NNW 2 mph 5 mph 92% 0 in 0 W/m2
00:32 52 °F 49.6 °F 30.1 in Calm   2 mph 92% 0 in 0 W/m2
00:37 51.8 °F 49.6 °F 30.1 in Calm   2 mph 92% 0 in 0 W/m2
00:42 51.8 °F 49.6 °F 30.1 in Calm   1 mph 92% 0 in 0 W/m2
00:47 51.6 °F 49.5 °F 30.1 in WSW 2 mph 5 mph 92% 0 in 0 W/m2
00:52 51.6 °F 49.5 °F 30.1 in SSE 0.9 mph 2 mph 92% 0 in 0 W/m2
00:57 51.6 °F 49.5 °F 30.1 in NW 2 mph 5 mph 92% 0 in 0 W/m2
01:02 51.6 °F 49.5 °F 30.1 in Calm   1 mph 92% 0 in 0 W/m2
01:07 51.4 °F 49.5 °F 30.1 in WNW 2.9 mph 3 mph 93% 0 in 0 W/m2
01:12 51.6 °F 49.6 °F 30.1 in NNW 0.9 mph 2 mph 93% 0 in 0 W/m2
01:17 51.6 °F 49.6 °F 30.1 in NNW 0.9 mph 2 mph 93% 0 in 0 W/m2
01:22 51.6 °F 49.6 °F 30.1 in WSW 2 mph 6 mph 93% 0 in 0 W/m2
01:27 51.8 °F 49.8 °F 30.1 in NW 2.9 mph 3 mph 93% 0 in 0 W/m2
01:32 51.8 °F 49.8 °F 30.1 in NW 0.9 mph 2 mph 93% 0 in 0 W/m2
01:37 51.8 °F 49.8 °F 30.1 in Calm     93% 0 in 0 W/m2
01:42 51.8 °F 49.8 °F 30.1 in NE 0.9 mph 1 mph 93% 0 in 0 W/m2
01:47 51.6 °F 49.6 °F 30.1 in WSW 0.9 mph 6 mph 93% 0 in 0 W/m2
01:52 51.6 °F 49.6 °F 30.1 in NNW 2.9 mph 3 mph 93% 0 in 0 W/m2
01:57 51.6 °F 49.6 °F 30.1 in West 2 mph 3 mph 93% 0 in 0 W/m2
02:02 51.6 °F 49.6 °F 30.1 in NW 0.9 mph 1 mph 93% 0 in 0 W/m2
02:07 51.8 °F 49.8 °F 30.1 in SW 2 mph 5 mph 93% 0 in 0 W/m2
02:12 51.6 °F 49.6 °F 30.1 in Calm   1 mph 93% 0 in 0 W/m2
02:17 51.6 °F 49.6 °F 30.1 in Calm   3 mph 93% 0 in 0 W/m2
02:22 51.6 °F 49.6 °F 30.1 in Calm   4 mph 93% 0 in 0 W/m2
02:27 51.8 °F 49.8 °F 30.1 in West 2 mph 2 mph 93% 0 in 0 W/m2
02:32 51.8 °F 49.8 °F 30.1 in Calm   3 mph 93% 0 in 0 W/m2
02:37 51.8 °F 49.8 °F 30.1 in NNW 0.9 mph 3 mph 93% 0 in 0 W/m2
02:42 51.8 °F 49.8 °F 30.1 in NW 2.9 mph 3 mph 93% 0 in 0 W/m2
02:47 51.8 °F 49.8 °F 30.1 in NW 0.9 mph 3 mph 93% 0 in 0 W/m2
02:52 52 °F 50 °F 30.1 in ENE 0.9 mph 4 mph 93% 0 in 0 W/m2
02:57 52 °F 50 °F 30.1 in Calm   3 mph 93% 0 in 0 W/m2
03:02 52 °F 50 °F 30.1 in NW 2.9 mph 6 mph 93% 0 in 0 W/m2
03:07 52 °F 50 °F 30.1 in Calm   2 mph 93% 0 in 0 W/m2
03:12 52 °F 50 °F 30.1 in SSE 4 mph 4 mph 93% 0 in 0 W/m2
03:17 52.2 °F 50.2 °F 30.1 in NW 2.9 mph 3 mph 93% 0 in 0 W/m2
03:22 52.2 °F 49.8 °F 30.1 in West 0.9 mph 4 mph 92% 0 in 0 W/m2
03:27 52.2 °F 49.8 °F 30.1 in Calm   3 mph 92% 0 in 0 W/m2
03:32 52.2 °F 49.8 °F 30.1 in Calm   1 mph 92% 0 in 0 W/m2
03:37 52.2 °F 49.8 °F 30.1 in WNW 0.9 mph 2 mph 92% 0 in 0 W/m2
03:42 52.2 °F 49.8 °F 30.1 in West 0.9 mph 2 mph 92% 0 in 0 W/m2
03:47 52.2 °F 49.8 °F 30.1 in NE 0.9 mph 2 mph 92% 0 in 0 W/m2
03:52 52.2 °F 49.8 °F 30.1 in NNE 0.9 mph 4 mph 92% 0 in 0 W/m2
03:57 52.3 °F 50 °F 30.1 in West 2 mph 4 mph 92% 0 in 0 W/m2
04:02 52.3 °F 50 °F 30.1 in WNW 2 mph 3 mph 92% 0 in 0 W/m2
04:07 52.3 °F 50 °F 30.1 in SW 2 mph 4 mph 92% 0 in 0 W/m2
04:12 52.3 °F 50 °F 30.1 in ENE 0.9 mph 3 mph 92% 0 in 0 W/m2
04:17 52.3 °F 50 °F 30.1 in Calm   2 mph 92% 0 in 0 W/m2
04:22 52.3 °F 50 °F 30.1 in Calm   2 mph 92% 0 in 0 W/m2
04:27 52.3 °F 50 °F 30.1 in Calm   2 mph 92% 0 in 0 W/m2
04:32 52.2 °F 49.8 °F 30.1 in NNE 2 mph 4 mph 92% 0 in 0 W/m2
04:37 52.2 °F 49.8 °F 30.1 in Calm   2 mph 92% 0 in 0 W/m2
04:42 52.2 °F 50.2 °F 30.1 in North 0.9 mph 2 mph 93% 0 in 0 W/m2
04:47 52.2 °F 50.2 °F 30.1 in Calm   2 mph 93% 0 in 0 W/m2
04:52 52.2 °F 50.2 °F 30.1 in NNE 2 mph 2 mph 93% 0 in 0 W/m2
04:57 52.2 °F 50.2 °F 30.1 in East 2 mph 8 mph 93% 0 in 0 W/m2
05:02 52.2 °F 50.2 °F 30.1 in WNW 0.9 mph 4 mph 93% 0 in 0 W/m2
05:07 52.2 °F 50.2 °F 30.1 in North 0.9 mph 8 mph 93% 0 in 0 W/m2
05:12 52.3 °F 50.4 °F 30.1 in NW 2 mph 4 mph 93% 0 in 0 W/m2
05:17 52.3 °F 50.4 °F 30.1 in NE 0.9 mph 3 mph 93% 0 in 0 W/m2
05:22 52.3 °F 50.4 °F 30.1 in North 0.9 mph 4 mph 93% 0 in 0 W/m2
05:27 52.3 °F 50.4 °F 30.1 in NE 2.9 mph 3 mph 93% 0 in 0 W/m2
05:32 52.3 °F 50.4 °F 30.1 in ENE 0.9 mph 2 mph 93% 0 in 0 W/m2
05:37 52.3 °F 50.4 °F 30.1 in ESE 2 mph 2 mph 93% 0 in 0 W/m2
05:42 52.3 °F 50.4 °F 30.1 in ESE 4 mph 6 mph 93% 0 in 0 W/m2
05:47 52.5 °F 50.5 °F 30.1 in NE 0.9 mph 2 mph 93% 0 in 0 W/m2
05:52 52.5 °F 50.5 °F 30.1 in NE 4 mph 5 mph 93% 0 in 0 W/m2
05:57 52.5 °F 50.5 °F 30.1 in NNE 0.9 mph 3 mph 93% 0 in 0 W/m2
06:02 52.5 °F 50.5 °F 30.1 in Calm   2 mph 93% 0 in 0 W/m2
06:07 52.7 °F 50.7 °F 30.1 in ENE 2.9 mph 4 mph 93% 0 in 0 W/m2
06:12 52.9 °F 50.5 °F 30.1 in WNW 0.9 mph 3 mph 92% 0 in 0 W/m2
06:17 52.9 °F 50.5 °F 30.1 in Calm   2 mph 92% 0 in 0 W/m2
06:22 52.9 °F 50.5 °F 30.1 in Calm   2 mph 92% 0 in 0 W/m2
06:27 52.9 °F 50.5 °F 30.1 in Calm   4 mph 92% 0 in 0 W/m2
06:32 52.9 °F 50.5 °F 30.1 in SE 0.9 mph 5 mph 92% 0 in 0 W/m2
06:37 52.9 °F 50.5 °F 30.1 in North 0.9 mph 3 mph 92% 0 in 0 W/m2
06:42 52.9 °F 50.5 °F 30.1 in NNE 2 mph 4 mph 92% 0 in 0 W/m2
06:47 52.9 °F 50.5 °F 30.1 in NE 2 mph 4 mph 92% 0 in 0 W/m2
06:52 53.1 °F 50.7 °F 30.1 in Calm   6 mph 92% 0 in 0 W/m2
06:57 53.1 °F 50.7 °F 30.1 in West 2 mph 3 mph 92% 0 in 0 W/m2
07:02 53.1 °F 50.7 °F 30.1 in North 2 mph 6 mph 92% 0 in 0 W/m2
07:07 53.2 °F 50.9 °F 30.1 in Calm   2 mph 92% 0 in 0 W/m2
07:12 53.2 °F 50.9 °F 30.1 in NW 2 mph 3 mph 92% 0 in 0 W/m2
07:17 53.2 °F 50.9 °F 30.1 in NE 2 mph 4 mph 92% 0 in 0 W/m2
07:23 53.2 °F 50.9 °F 30.1 in North 2.9 mph 3 mph 92% 0 in 0 W/m2
07:28 53.2 °F 50.9 °F 30.1 in North 0.9 mph 1 mph 92% 0 in 0 W/m2
07:33 53.2 °F 50.9 °F 30.1 in North 0.9 mph 3 mph 92% 0 in 0 W/m2
07:38 53.2 °F 50.9 °F 30.1 in NNE 2 mph 3 mph 92% 0 in 0 W/m2
07:43 53.2 °F 50.9 °F 30.1 in NW 0.9 mph 3 mph 92% 0 in 0 W/m2
07:48 53.1 °F 51.1 °F 30.1 in NE 0.9 mph 1 mph 93% 0 in 0 W/m2
07:53 53.1 °F 51.1 °F 30.1 in NNE 0.9 mph 3 mph 93% 0 in 0 W/m2
07:58 52.9 °F 50.9 °F 30.1 in NE 2.9 mph 3 mph 93% 0 in 0 W/m2
08:03 52.9 °F 50.9 °F 30.1 in ESE 0.9 mph 5 mph 93% 0.01 in 5 W/m2
08:08 52.9 °F 50.9 °F 30.1 in NW 8.1 mph 8 mph 93% 0.01 in 5 W/m2
08:13 53.1 °F 51.1 °F 30.1 in NNW 4 mph 12 mph 93% 0.01 in 7 W/m2
08:18 53.1 °F 51.1 °F 30.1 in Calm   2 mph 93% 0.01 in 5 W/m2
08:23 53.1 °F 51.1 °F 30.1 in NE 4 mph 4 mph 93% 0.01 in 9 W/m2
08:28 53.1 °F 51.1 °F 30.1 in SW 0.9 mph 5 mph 93% 0.01 in 16 W/m2
08:33 53.1 °F 51.4 °F 30.1 in NNW 2.9 mph 4 mph 94% 0.02 in 18 W/m2
08:38 53.1 °F 51.4 °F 30.1 in West 2.9 mph 4 mph 94% 0.02 in 12 W/m2
08:43 53.1 °F 51.4 °F 30.1 in North 0.9 mph 3 mph 94% 0.02 in 14 W/m2
08:48 53.1 °F 51.4 °F 30.1 in WNW 2.9 mph 4 mph 94% 0.02 in 25 W/m2
08:53 53.1 °F 51.4 °F 30.1 in North 0.9 mph 3 mph 94% 0.02 in 18 W/m2
08:58 53.1 °F 51.4 °F 30.1 in NW 2 mph 4 mph 94% 0.02 in 12 W/m2
09:03 53.1 °F 51.4 °F 30.1 in NNW 2.9 mph 4 mph 94% 0.02 in 14 W/m2
09:08 53.1 °F 51.4 °F 30.1 in Calm   4 mph 94% 0.02 in 21 W/m2
09:13 53.1 °F 51.6 °F 30.1 in WNW 0.9 mph 3 mph 95% 0.02 in 26 W/m2
09:18 53.1 °F 51.6 °F 30.1 in North 4 mph 4 mph 95% 0.02 in 39 W/m2
09:23 53.1 °F 51.6 °F 30.1 in North 0.9 mph 5 mph 95% 0.02 in 39 W/m2
09:28 53.1 °F 51.6 °F 30.1 in North 0.9 mph 6 mph 95% 0.03 in 39 W/m2
09:33 53.2 °F 51.8 °F 30.1 in WNW 2.9 mph 6 mph 95% 0.02 in 37 W/m2
09:38 53.2 °F 51.8 °F 30.1 in NNE 0.9 mph 6 mph 95% 0.02 in 44 W/m2
09:43 53.2 °F 51.8 °F 30.1 in WNW 2 mph 4 mph 95% 0.02 in 53 W/m2
09:48 53.4 °F 52 °F 30.1 in Calm   1 mph 95% 0.02 in 62 W/m2
09:53 53.4 °F 52 °F 30.1 in North 0.9 mph 2 mph 95% 0.02 in 54 W/m2
09:58 53.4 °F 52 °F 30.1 in NW 2 mph 6 mph 95% 0.02 in 44 W/m2
10:03 53.6 °F 52.2 °F 30.1 in WNW 2 mph 4 mph 95% 0.01 in 47 W/m2
10:08 53.8 °F 52.3 °F 30.1 in WNW 2 mph 5 mph 95% 0.01 in 54 W/m2
10:13 53.8 °F 52.3 °F 30.1 in NE 2 mph 4 mph 95% 0.01 in 88 W/m2
10:18 54 °F 52.5 °F 30.1 in ENE 4.9 mph 8 mph 95% 0.01 in 77 W/m2
10:23 54 °F 52.5 °F 30.1 in NE 2 mph 4 mph 95% 0.01 in 97 W/m2
10:28 54.1 °F 52.7 °F 30.1 in ESE 0.9 mph 2 mph 95% 0 in 56 W/m2
10:33 54.1 °F 52.7 °F 30.1 in NW 0.9 mph 7 mph 95% 0 in 62 W/m2
10:38 54.1 °F 52.7 °F 30.1 in West 4 mph 4 mph 95% 0 in 84 W/m2
10:43 54.3 °F 52.9 °F 30.1 in NW 2 mph 6 mph 95% 0 in 72 W/m2
10:48 54.3 °F 52.9 °F 30.1 in NW 0.9 mph 4 mph 95% 0 in 84 W/m2
10:53 54.3 °F 52.9 °F 30.1 in ENE 0.9 mph 7 mph 95% 0 in 83 W/m2
10:58 54.3 °F 52.9 °F 30.1 in NE 0.9 mph 4 mph 95% 0.01 in 54 W/m2
11:03 54.5 °F 53.1 °F 30.1 in NNE 2 mph 3 mph 95% 0.01 in 60 W/m2
11:08 54.7 °F 53.2 °F 30.1 in Calm   4 mph 95% 0.01 in 67 W/m2
11:13 54.7 °F 53.2 °F 30.1 in NW 0.9 mph 6 mph 95% 0.01 in 60 W/m2
11:18 54.7 °F 53.2 °F 30.1 in West 0.9 mph 7 mph 95% 0.01 in 53 W/m2
11:23 54.7 °F 53.2 °F 30.1 in Calm   2 mph 95% 0.01 in 72 W/m2
11:28 54.9 °F 53.4 °F 30.1 in SSE 2.9 mph 6 mph 95% 0.01 in 77 W/m2
11:33 55 °F 53.6 °F 30.1 in NE 2 mph 4 mph 95% 0.01 in 56 W/m2
11:38 55 °F 53.6 °F 30.1 in North 0.9 mph 6 mph 95% 0.01 in 76 W/m2
11:43 55.2 °F 53.8 °F 30.1 in North 2 mph 2 mph 95% 0.01 in 67 W/m2
11:48 55.2 °F 53.8 °F 30.1 in South 0.9 mph 3 mph 95% 0.01 in 70 W/m2
11:53 55.4 °F 54 °F 30.1 in ENE 2 mph 6 mph 95% 0.01 in 65 W/m2
11:58 55.6 °F 54.1 °F 30.1 in Calm   5 mph 95% 0 in 60 W/m2
12:04 55.6 °F 54.1 °F 30.1 in West 4 mph 4 mph 95% 0 in 83 W/m2
12:09 55.8 °F 54.3 °F 30.1 in Calm   5 mph 95% 0 in 77 W/m2
12:14 55.8 °F 54.3 °F 30.1 in SE 2.9 mph 9 mph 95% 0 in 98 W/m2
12:19 55.9 °F 54.5 °F 30.1 in West 2 mph 7 mph 95% 0 in 190 W/m2
12:24 56.1 °F 54.5 °F 30.1 in East 2 mph 8 mph 94% 0 in 107 W/m2
12:29 56.3 °F 54.9 °F 30.1 in East 0.9 mph 5 mph 95% 0 in 163 W/m2
12:34 56.5 °F 54.9 °F 30.1 in NNW 0.9 mph 9 mph 94% 0 in 178 W/m2
12:39 56.7 °F 55 °F 30.1 in NNE 0.9 mph 7 mph 94% 0 in 128 W/m2
12:44 56.8 °F 55.2 °F 30.1 in WNW 4.9 mph 7 mph 94% 0 in 204 W/m2
12:49 57 °F 55 °F 30.1 in NW 4 mph 7 mph 93% 0 in 232 W/m2
12:54 57.4 °F 55.4 °F 30.1 in WNW 0.9 mph 9 mph 93% 0 in 227 W/m2
12:59 57.6 °F 55.6 °F 30.1 in WNW 2.9 mph 5 mph 93% 0 in 343 W/m2
13:04 57.9 °F 55.6 °F 30.1 in WSW 4 mph 6 mph 92% 0 in 246 W/m2
13:09 58.5 °F 56.1 °F 30.1 in NW 6.9 mph 9 mph 92% 0 in 248 W/m2
13:14 58.6 °F 55.9 °F 30.1 in NW 2.9 mph 4 mph 91% 0 in 186 W/m2
13:19 58.6 °F 55.9 °F 30.1 in WSW 6.9 mph 12 mph 91% 0 in 149 W/m2
13:24 58.6 °F 55.8 °F 30.1 in WNW 8.1 mph 9 mph 90% 0 in 174 W/m2
13:29 58.6 °F 55.8 °F 30.1 in NNW 2 mph 12 mph 90% 0 in 199 W/m2
13:34 58.6 °F 55.4 °F 30.1 in West 2 mph 11 mph 89% 0 in 267 W/m2
13:39 59 °F 56.1 °F 30.1 in South 10.1 mph 10 mph 90% 0 in 302 W/m2
13:44 59.2 °F 55.9 °F 30.1 in NNE 2 mph 4 mph 89% 0 in 246 W/m2
13:49 59.5 °F 56.3 °F 30.1 in North 0.9 mph 4 mph 89% 0 in 265 W/m2
13:54 59.7 °F 56.1 °F 30.1 in NE 2 mph 4 mph 88% 0 in 290 W/m2
13:59 60.1 °F 56.1 °F 30.1 in West 4 mph 6 mph 87% 0 in 285 W/m2
14:04 60.3 °F 56.1 °F 30.1 in NNW 2.9 mph 12 mph 86% 0 in 246 W/m2
14:09 60.3 °F 55.8 °F 30.1 in NE 0.9 mph 5 mph 85% 0 in 162 W/m2
14:14 60.3 °F 55.8 °F 30.1 in WSW 2.9 mph 9 mph 85% 0 in 134 W/m2
14:19 60.6 °F 55.8 °F 30.1 in SSW 2 mph 8 mph 84% 0 in 163 W/m2
14:24 60.6 °F 55.4 °F 30.1 in West 2 mph 9 mph 83% 0 in 169 W/m2
14:29 60.4 °F 55.2 °F 30.1 in WNW 4 mph 8 mph 83% 0 in 86 W/m2
14:34 60.4 °F 55.2 °F 30.1 in WNW 6 mph 9 mph 83% 0 in 76 W/m2
14:39 60.3 °F 55 °F 30.1 in NE 0.9 mph 4 mph 83% 0 in 104 W/m2
14:44 60.1 °F 54.9 °F 30.1 in NE 4 mph 7 mph 83% 0 in 171 W/m2
14:49 60.3 °F 55.4 °F 30.1 in WNW 2 mph 5 mph 84% 0 in 221 W/m2
14:54 60.3 °F 55.4 °F 30.1 in WNW 2.9 mph 3 mph 84% 0 in 190 W/m2
14:59 60.4 °F 55.6 °F 30.1 in NNW 2 mph 4 mph 84% 0 in 146 W/m2
15:04 60.4 °F 55.2 °F 30.1 in SE 0.9 mph 9 mph 83% 0 in 192 W/m2
15:09 60.6 °F 55.4 °F 30.1 in WNW 2.9 mph 6 mph 83% 0 in 206 W/m2
15:14 60.8 °F 55.6 °F 30.1 in WNW 0.9 mph 3 mph 83% 0 in 167 W/m2
15:19 61 °F 55.4 °F 30 in North 0.9 mph 4 mph 82% 0 in 206 W/m2
15:24 61.2 °F 55.2 °F 30 in Calm   4 mph 81% 0 in 202 W/m2
15:29 61.3 °F 55.4 °F 30 in North 2 mph 3 mph 81% 0 in 353 W/m2
15:34 61.7 °F 55.4 °F 30 in West 2.9 mph 7 mph 80% 0 in 397 W/m2
15:39 62.1 °F 55.8 °F 30 in West 4 mph 4 mph 80% 0 in 193 W/m2
15:44 62.1 °F 55.4 °F 30 in ENE 2.9 mph 9 mph 79% 0 in 274 W/m2
15:49 62.2 °F 55.9 °F 30 in West 0.9 mph 3 mph 80% 0 in 302 W/m2
15:54 62.4 °F 55.8 °F 30 in NNW 2.9 mph 9 mph 79% 0 in 160 W/m2
15:59 62.4 °F 55.4 °F 30 in WNW 10.1 mph 11 mph 78% 0 in 327 W/m2
16:04 62.4 °F 55 °F 30 in NW 2 mph 8 mph 77% 0 in 209 W/m2
16:09 62.6 °F 55.2 °F 30 in WNW 2.9 mph 7 mph 77% 0 in 246 W/m2
16:14 62.8 °F 55 °F 30 in NW 2.9 mph 8 mph 76% 0 in 304 W/m2
16:19 63 °F 55.2 °F 30 in NNE 2 mph 3 mph 76% 0 in 220 W/m2
16:24 63 °F 55.2 °F 30 in West 8.9 mph 13 mph 76% 0 in 167 W/m2
16:29 62.8 °F 55 °F 30 in WNW 4.9 mph 9 mph 76% 0 in 149 W/m2
16:34 62.4 °F 55 °F 30 in West 2 mph 13 mph 77% 0 in 135 W/m2
16:39 62.4 °F 55 °F 30 in East 2 mph 3 mph 77% 0 in 104 W/m2
16:44 62.2 °F 54.9 °F 30 in WSW 2 mph 7 mph 77% 0 in 83 W/m2
16:49 62.2 °F 54.9 °F 30 in WNW 4.9 mph 9 mph 77% 0 in 69 W/m2
16:55 62.2 °F 55.2 °F 30 in NW 2.9 mph 5 mph 78% 0 in 74 W/m2
17:00 62.1 °F 55 °F 30 in South 2 mph 9 mph 78% 0 in 90 W/m2
17:05 62.1 °F 54.7 °F 30 in SW 2 mph 8 mph 77% 0 in 105 W/m2
17:10 62.1 °F 55 °F 30 in WNW 2.9 mph 10 mph 78% 0 in 100 W/m2
17:15 62.1 °F 55 °F 30 in NNE 0.9 mph 7 mph 78% 0 in 109 W/m2
17:20 62.1 °F 55 °F 30 in SSW 0.9 mph 10 mph 78% 0 in 102 W/m2
17:25 62.1 °F 55 °F 30 in Calm   8 mph 78% 0 in 100 W/m2
17:30 62.1 °F 55 °F 30 in NE 2 mph 5 mph 78% 0 in 81 W/m2
17:35 62.2 °F 55.2 °F 30 in NW 2 mph 3 mph 78% 0 in 67 W/m2
17:40 62.1 °F 55 °F 30 in WNW 2 mph 11 mph 78% 0 in 51 W/m2
17:45 62.1 °F 55.4 °F 30 in ENE 2.9 mph 6 mph 79% 0 in 47 W/m2
17:50 62.1 °F 55.4 °F 30 in West 4 mph 11 mph 79% 0 in 35 W/m2
17:55 61.9 °F 55.6 °F 30 in WNW 2 mph 5 mph 80% 0 in 40 W/m2
18:00 61.9 °F 55.6 °F 30.1 in WNW 4 mph 8 mph 80% 0 in 32 W/m2
18:05 61.5 °F 55.6 °F 30.1 in SW 4.9 mph 17 mph 81% 0 in 39 W/m2
18:10 61.3 °F 55.8 °F 30.1 in NW 6 mph 8 mph 82% 0 in 23 W/m2
18:15 61 °F 55.8 °F 30.1 in NW 4 mph 17 mph 83% 0 in 35 W/m2
18:20 60.4 °F 55.6 °F 30.1 in NW 4 mph 8 mph 84% 0 in 19 W/m2
18:25 60.4 °F 55.6 °F 30.1 in NW 4 mph 10 mph 84% 0 in 18 W/m2
18:30 60.3 °F 55.8 °F 30.1 in NW 2 mph 2 mph 85% 0 in 16 W/m2
18:35 59.9 °F 55.9 °F 30.1 in SSE 8.1 mph 9 mph 87% 0 in 19 W/m2
18:40 59.5 °F 55.6 °F 30.1 in NNE 4 mph 7 mph 87% 0 in 14 W/m2
18:45 59.4 °F 55.8 °F 30.1 in NW 2 mph 9 mph 88% 0 in 9 W/m2
18:50 59.2 °F 55.6 °F 30.1 in WSW 2.9 mph 8 mph 88% 0 in 5 W/m2
18:55 59.2 °F 55.6 °F 30.1 in NNW 4 mph 9 mph 88% 0 in 0 W/m2
19:00 59.2 °F 55.9 °F 30.1 in WSW 2.9 mph 8 mph 89% 0 in 0 W/m2
19:05 59 °F 55.8 °F 30.1 in ESE 0.9 mph 7 mph 89% 0 in 0 W/m2
19:10 58.8 °F 55.6 °F 30.1 in NE 2 mph 4 mph 89% 0 in 0 W/m2
19:15 58.8 °F 55.6 °F 30.1 in NNE 2 mph 4 mph 89% 0 in 0 W/m2
19:20 58.8 °F 55.6 °F 30.1 in WNW 4 mph 8 mph 89% 0 in 0 W/m2
19:26 58.8 °F 55.6 °F 30.1 in North 2 mph 3 mph 89% 0 in 0 W/m2
19:31 58.8 °F 55.6 °F 30.1 in NNW 8.9 mph 11 mph 89% 0 in 0 W/m2
19:36 58.8 °F 55.6 °F 30.1 in NNW 4 mph 4 mph 89% 0 in 0 W/m2
19:41 58.8 °F 55.6 °F 30.1 in North 0.9 mph 10 mph 89% 0 in 0 W/m2
19:46 58.8 °F 55.6 °F 30.1 in North 8.1 mph 8 mph 89% 0 in 0 W/m2
19:51 58.8 °F 55.6 °F 30.1 in NNW 2.9 mph 7 mph 89% 0 in 0 W/m2
19:56 58.8 °F 55.6 °F 30.1 in WSW 0.9 mph 10 mph 89% 0 in 0 W/m2
20:01 58.8 °F 55.6 °F 30.1 in NNW 2 mph 6 mph 89% 0 in 0 W/m2
20:06 58.8 °F 55.6 °F 30.1 in NW 0.9 mph 8 mph 89% 0 in 0 W/m2
20:11 58.8 °F 55.6 °F 30.1 in NW 2.9 mph 5 mph 89% 0 in 0 W/m2
20:16 58.8 °F 55.6 °F 30.1 in NE 0.9 mph 8 mph 89% 0 in 0 W/m2
20:21 58.8 °F 55.6 °F 30.1 in NNE 2 mph 5 mph 89% 0 in 0 W/m2
20:26 58.8 °F 55.6 °F 30.1 in Calm   4 mph 89% 0 in 0 W/m2
20:31 58.8 °F 55.6 °F 30.1 in WSW 2 mph 5 mph 89% 0 in 0 W/m2
20:36 58.6 °F 55.4 °F 30.1 in WNW 2.9 mph 3 mph 89% 0 in 0 W/m2
20:41 58.6 °F 55.8 °F 30.1 in NNE 2.9 mph 4 mph 90% 0 in 0 W/m2
20:46 58.6 °F 55.8 °F 30.1 in NNW 0.9 mph 3 mph 90% 0 in 0 W/m2
20:51 58.5 °F 55.6 °F 30.1 in SSW 4.9 mph 9 mph 90% 0 in 0 W/m2
20:56 58.6 °F 55.8 °F 30.1 in NNW 4 mph 4 mph 90% 0 in 0 W/m2
21:01 58.6 °F 55.8 °F 30.1 in WSW 4.9 mph 8 mph 90% 0 in 0 W/m2
21:06 58.6 °F 55.8 °F 30.1 in West 2.9 mph 4 mph 90% 0 in 0 W/m2
21:11 58.6 °F 55.8 °F 30.1 in Calm   8 mph 90% 0 in 0 W/m2
21:16 58.8 °F 55.6 °F 30.1 in NNW 2.9 mph 3 mph 89% 0 in 0 W/m2
21:21 58.8 °F 55.6 °F 30.1 in North 2 mph 6 mph 89% 0 in 0 W/m2
21:26 58.8 °F 55.6 °F 30.1 in NE 0.9 mph 2 mph 89% 0 in 0 W/m2
21:31 58.8 °F 55.6 °F 30.1 in NW 2.9 mph 4 mph 89% 0 in 0 W/m2
21:36 58.8 °F 55.6 °F 30.1 in NW 6 mph 8 mph 89% 0 in 0 W/m2
21:41 58.8 °F 55.6 °F 30.1 in NE 2.9 mph 3 mph 89% 0 in 0 W/m2
21:46 58.8 °F 55.6 °F 30.1 in NNE 0.9 mph 8 mph 89% 0 in 0 W/m2
21:51 58.8 °F 55.6 °F 30.1 in North 0.9 mph 3 mph 89% 0 in 0 W/m2
21:56 58.8 °F 55.6 °F 30.1 in NNW 0.9 mph 2 mph 89% 0 in 0 W/m2
22:01 58.8 °F 55.6 °F 30.1 in NNW 2.9 mph 3 mph 89% 0 in 0 W/m2
22:06 58.8 °F 55.2 °F 30.1 in NE 2.9 mph 4 mph 88% 0 in 0 W/m2
22:11 59 °F 55.4 °F 30.1 in NNW 0.9 mph 2 mph 88% 0 in 0 W/m2
22:16 59 °F 55.4 °F 30.1 in South 4 mph 9 mph 88% 0 in 0 W/m2
22:21 59 °F 55.4 °F 30.1 in North 2.9 mph 10 mph 88% 0 in 0 W/m2
22:26 59.2 °F 55.6 °F 30.1 in West 4 mph 5 mph 88% 0 in 0 W/m2
22:31 59.4 °F 55.4 °F 30.1 in NW 2 mph 10 mph 87% 0 in 0 W/m2
22:36 59.4 °F 55.4 °F 30.1 in WNW 4 mph 7 mph 87% 0 in 0 W/m2
22:41 59.4 °F 55.2 °F 30.1 in North 4 mph 4 mph 86% 0 in 0 W/m2
22:46 59.4 °F 55.2 °F 30.1 in WNW 6.9 mph 7 mph 86% 0 in 0 W/m2
22:52 59.4 °F 55.2 °F 30.1 in NNW 2.9 mph 8 mph 86% 0 in 0 W/m2
22:57 59.5 °F 55.4 °F 30.1 in NW 2.9 mph 6 mph 86% 0 in 0 W/m2
23:02 59.4 °F 55.2 °F 30.1 in NNW 4 mph 7 mph 86% 0 in 0 W/m2
23:07 59.4 °F 55.2 °F 30.1 in North 2 mph 4 mph 86% 0 in 0 W/m2
23:12 59.4 °F 55.2 °F 30.1 in SW 2.9 mph 9 mph 86% 0 in 0 W/m2
23:17 59.4 °F 55.2 °F 30.1 in North 2 mph 5 mph 86% 0 in 0 W/m2
23:22 59.4 °F 55.4 °F 30.1 in NNE 2.9 mph 9 mph 87% 0 in 0 W/m2
23:27 59.4 °F 55.4 °F 30.1 in Calm   8 mph 87% 0 in 0 W/m2
23:32 59.2 °F 55 °F 30.1 in Calm   4 mph 86% 0 in 0 W/m2
23:37 59.4 °F 55.2 °F 30.1 in East 4 mph 9 mph 86% 0 in 0 W/m2
23:42 59.4 °F 55.2 °F 30.1 in North 2.9 mph 9 mph 86% 0 in 0 W/m2
23:47 59.4 °F 55.2 °F 30.1 in NNW 0.9 mph 5 mph 86% 0 in 0 W/m2
23:52 59.4 °F 55.2 °F 30.1 in NW 0.9 mph 3 mph 86% 0 in 0 W/m2
23:57 59.2 °F 55 °F 30.1 in North 2.9 mph 5 mph 86% 0 in 0 W/m2
Juneau County Weather
Compliments of Weather Underground - 4 mb